Sulphur Springs, TX

4:16 PM CDT on April 21, 2018 (GMT -0500)
Sulphur Springs Municipal

Weather History for KSLR - July, 2013

Change the Weather History Date:

Monday, July 22, 2013

  Actual Average (KGVT) Record (KGVT)
Temperature  
Mean Temperature 86 °F -  
Max Temperature 95 °F 93 °F 100 °F (1998)
Min Temperature 77 °F 75 °F 69 °F (2004)
Cooling Degree Days 20    
Growing Degree Days 36 (Base 50)    
Moisture  
Dew Point 71 °F    
Average Humidity 63    
Maximum Humidity 88    
Minimum Humidity 44    
Precipitation  
Precipitation 0.00 in - - ()
Sea Level Pressure  
Sea Level Pressure 29.96 in    
Wind  
Wind Speed 12 mph (SSW)    
Max Wind Speed 22 mph    
Max Gust Speed 26 mph    
Visibility 10 miles    
Events      
Averages and records for this station are not official NWS values.
T = Trace of Precipitation, MM = Missing Value Source: NWS Daily Summary

Daily Weather History Graph

Daily Weather History Graph

Search for Another Location

Airport or City:

Astronomy

Jul. 22, 2013 Rise Set
Actual Time 6:28 AM CDT 8:28 PM CDT
Civil Twilight 6:01 AM CDT 8:56 PM CDT
Nautical Twilight 5:27 AM CDT 9:29 PM CDT
Astronomical Twilight 4:51 AM CDT 10:05 PM CDT
Moon 8:20 PM CDT (7/22) 6:23 AM CDT (7/22)
Length of Visible Light 14h 54m
Length of Day
13h 59m
Full, 100% of the Moon is Illuminated
Jul 22
Full
Jul 22
Full
Jul 29
Last Quarter
Aug 6
New
Aug 14
First Quarter

Hourly Weather History & Observations

Time (CDT) Temp. Heat Index Dew Point Humidity Pressure Visibility Wind Dir Wind Speed Gust Speed Precip Events Conditions
12:15 AM 82.2 °F 86.6 °F 71.1 °F 69% 29.95 in 10.0 mi SSW 12.7 mph 20.7 mph N/A   Clear
12:35 AM 81.5 °F 85.5 °F 70.7 °F 70% 29.95 in 10.0 mi SSW 13.8 mph - N/A   Clear
12:55 AM 81.1 °F 84.9 °F 70.3 °F 70% 29.96 in 10.0 mi SSW 12.7 mph - N/A   Clear
1:15 AM 80.8 °F 84.4 °F 70.7 °F 71% 29.96 in 10.0 mi SSW 11.5 mph - N/A   Clear
1:35 AM 80.6 °F 84.2 °F 70.9 °F 72% 29.96 in 10.0 mi SSW 12.7 mph - N/A   Clear
1:55 AM 80.1 °F 83.6 °F 71.1 °F 74% 29.96 in 10.0 mi SSW 12.7 mph - N/A   Clear
2:15 AM 79.7 °F - 71.2 °F 75% 29.96 in 10.0 mi SSW 9.2 mph - N/A   Clear
2:35 AM 79.3 °F - 71.6 °F 77% 29.96 in 10.0 mi SSW 10.4 mph - N/A   Clear
2:55 AM 79.3 °F - 71.8 °F 78% 29.95 in 10.0 mi SSW 11.5 mph 17.3 mph N/A   Clear
3:15 AM 78.8 °F - 71.8 °F 79% 29.95 in 10.0 mi SSW 8.1 mph - N/A   Clear
3:35 AM 78.8 °F - 72.0 °F 79% 29.95 in 10.0 mi SSW 8.1 mph - N/A   Clear
3:55 AM 78.3 °F - 72.1 °F 81% 29.96 in 10.0 mi SSW 8.1 mph - N/A   Clear
4:15 AM 78.1 °F - 72.5 °F 83% 29.96 in 10.0 mi SSW 8.1 mph - N/A   Clear
4:35 AM 78.1 °F - 72.5 °F 83% 29.96 in 10.0 mi SSW 9.2 mph - N/A   Clear
4:55 AM 77.9 °F - 72.7 °F 84% 29.96 in 10.0 mi SSW 12.7 mph - N/A   Clear
5:15 AM 77.9 °F - 72.9 °F 84% 29.96 in 10.0 mi SSW 12.7 mph - N/A   Scattered Clouds
5:35 AM 77.9 °F - 73.0 °F 85% 29.96 in 10.0 mi SSW 10.4 mph - N/A   Scattered Clouds
5:55 AM 77.9 °F - 73.4 °F 86% 29.96 in 10.0 mi SSW 16.1 mph 21.9 mph N/A   Scattered Clouds
6:15 AM 77.7 °F - 73.4 °F 86% 29.96 in 10.0 mi SSW 12.7 mph - N/A   Scattered Clouds
6:35 AM 77.4 °F - 73.4 °F 88% 29.97 in 10.0 mi SSW 13.8 mph - N/A   Scattered Clouds
6:55 AM 77.2 °F - 73.4 °F 88% 29.97 in 10.0 mi SSW 11.5 mph - N/A   Scattered Clouds
7:15 AM 77.5 °F - 73.4 °F 87% 29.98 in 10.0 mi SSW 12.7 mph - N/A   Scattered Clouds
7:35 AM 78.3 °F - 73.4 °F 85% 29.98 in 10.0 mi SSW 12.7 mph - N/A   Scattered Clouds
7:55 AM 79.0 °F - 73.2 °F 82% 29.98 in 10.0 mi SSW 15.0 mph - N/A   Scattered Clouds
8:35 AM 80.8 °F 85.2 °F 72.7 °F 76% 30.00 in 10.0 mi SW 13.8 mph 23.0 mph N/A   Scattered Clouds
8:55 AM 81.7 °F 86.5 °F 72.3 °F 73% 30.00 in 10.0 mi SW 21.9 mph 26.5 mph N/A   Scattered Clouds
9:35 AM 83.7 °F 88.9 °F 71.6 °F 67% 30.01 in 10.0 mi SW 19.6 mph 26.5 mph N/A   Mostly Cloudy
9:55 AM 84.9 °F 90.7 °F 72.1 °F 65% 30.01 in 10.0 mi SW 20.7 mph 24.2 mph N/A   Mostly Cloudy
10:15 AM 85.5 °F 91.8 °F 72.3 °F 65% 30.01 in 10.0 mi SW 17.3 mph 20.7 mph N/A   Mostly Cloudy
10:35 AM 85.1 °F 90.8 °F 71.6 °F 64% 30.01 in 10.0 mi SW 18.4 mph 23.0 mph N/A   Scattered Clouds
10:55 AM 86.0 °F 91.8 °F 71.6 °F 62% 30.01 in 10.0 mi SW 16.1 mph 24.2 mph N/A   Scattered Clouds
11:15 AM 87.1 °F 93.6 °F 72.1 °F 61% 30.01 in 10.0 mi SW 15.0 mph 20.7 mph N/A   Mostly Cloudy
11:35 AM 87.3 °F 93.6 °F 71.6 °F 60% 30.01 in 10.0 mi SW 13.8 mph 20.7 mph N/A   Scattered Clouds
11:55 AM 88.2 °F 94.6 °F 71.8 °F 58% 30.01 in 10.0 mi SW 16.1 mph - N/A   Scattered Clouds
12:15 PM 88.9 °F 95.1 °F 71.6 °F 56% 30.00 in 10.0 mi SW 15.0 mph - N/A   Scattered Clouds
12:35 PM 89.2 °F 95.4 °F 71.1 °F 55% 30.00 in 10.0 mi SW 16.1 mph - N/A   Scattered Clouds
12:55 PM 90.3 °F 96.7 °F 70.9 °F 53% 30.00 in 10.0 mi SW 11.5 mph - N/A   Clear
1:15 PM 91.2 °F 97.5 °F 70.7 °F 51% 29.99 in 10.0 mi SSW 11.5 mph - N/A   Scattered Clouds
1:35 PM 92.3 °F 98.6 °F 70.3 °F 49% 29.99 in 10.0 mi SW 11.5 mph 18.4 mph N/A   Scattered Clouds
1:55 PM 92.7 °F 98.3 °F 70.0 °F 47% 29.99 in 10.0 mi SSW 9.2 mph - N/A   Scattered Clouds
2:15 PM 93.7 °F 99.3 °F 69.4 °F 45% 29.98 in 10.0 mi SSW 12.7 mph 18.4 mph N/A   Scattered Clouds
2:35 PM 93.9 °F 100.3 °F 70.2 °F 46% 29.98 in 10.0 mi WSW 12.7 mph - N/A   Scattered Clouds
2:55 PM 93.6 °F 100.1 °F 70.5 °F 47% 29.97 in 10.0 mi SSW 11.5 mph - N/A   Scattered Clouds
3:15 PM 94.5 °F 100.8 °F 70.3 °F 45% 29.96 in 10.0 mi SSW 9.2 mph - N/A   Scattered Clouds
3:35 PM 93.9 °F 99.7 °F 69.6 °F 45% 29.96 in 10.0 mi SSW 11.5 mph 18.4 mph N/A   Scattered Clouds
3:55 PM 94.5 °F 100.8 °F 70.0 °F 45% 29.95 in 10.0 mi SSW 12.7 mph 17.3 mph N/A   Scattered Clouds
4:15 PM 94.5 °F 100.8 °F 70.2 °F 45% 29.95 in 10.0 mi South 10.4 mph - N/A   Clear
4:35 PM 94.3 °F 100.4 °F 70.2 °F 45% 29.95 in 10.0 mi South 9.2 mph 18.4 mph N/A   Clear
4:55 PM 94.1 °F 100.6 °F 70.3 °F 46% 29.94 in 10.0 mi South 9.2 mph 20.7 mph N/A   Clear
5:15 PM 94.3 °F 99.8 °F 69.6 °F 44% 29.94 in 10.0 mi SSE 12.7 mph 17.3 mph N/A   Scattered Clouds
5:35 PM 94.1 °F 99.5 °F 69.3 °F 44% 29.93 in 10.0 mi South 11.5 mph - N/A   Clear
5:55 PM 93.7 °F 99.3 °F 69.4 °F 45% 29.93 in 10.0 mi SSE 11.5 mph - N/A   Clear
6:15 PM 93.9 °F 99.1 °F 68.9 °F 44% 29.92 in 10.0 mi South 12.7 mph 16.1 mph N/A   Clear
6:35 PM 93.4 °F 98.1 °F 68.4 °F 44% 29.91 in 10.0 mi South 11.5 mph 17.3 mph N/A   Clear
6:55 PM 93.6 °F 99.0 °F 69.4 °F 45% 29.91 in 10.0 mi South 9.2 mph - N/A   Clear
7:15 PM 92.7 °F 97.7 °F 68.9 °F 46% 29.90 in 10.0 mi South 12.7 mph 16.1 mph N/A   Clear
7:35 PM 92.3 °F 97.6 °F 69.4 °F 47% 29.90 in 10.0 mi SSE 8.1 mph - N/A   Clear
7:55 PM 91.4 °F 96.8 °F 69.6 °F 49% 29.90 in 10.0 mi South 9.2 mph - N/A   Clear
8:15 PM 90.5 °F 95.5 °F 69.8 °F 50% 29.91 in 10.0 mi SSE 6.9 mph - N/A   Clear
8:35 PM 89.6 °F 94.7 °F 69.6 °F 52% 29.91 in 10.0 mi SSE 8.1 mph - N/A   Clear
8:55 PM 88.9 °F 93.8 °F 69.8 °F 53% 29.91 in 10.0 mi SSE 6.9 mph - N/A   Clear
9:15 PM 88.7 °F 93.9 °F 70.0 °F 54% 29.91 in 10.0 mi South 8.1 mph - N/A   Clear
9:35 PM 87.8 °F 92.6 °F 70.0 °F 55% 29.91 in 10.0 mi SSE 8.1 mph - N/A   Clear
9:55 PM 87.3 °F 92.0 °F 70.0 °F 56% 29.92 in 10.0 mi South 6.9 mph - N/A   Clear
10:15 PM 86.9 °F 92.1 °F 70.3 °F 58% 29.94 in 10.0 mi South 6.9 mph - N/A   Clear
10:35 PM 86.4 °F 91.4 °F 70.7 °F 59% 29.94 in 10.0 mi South 8.1 mph - N/A   Clear
10:55 PM 85.6 °F 90.8 °F 70.7 °F 61% 29.94 in 10.0 mi South 8.1 mph - N/A   Clear
11:15 PM 85.6 °F 90.8 °F 70.9 °F 61% 29.95 in 10.0 mi South 6.9 mph - N/A   Clear
11:35 PM 85.1 °F 90.4 °F 71.1 °F 63% 29.96 in 10.0 mi South 5.8 mph - N/A   Clear
11:55 PM 84.7 °F 90.0 °F 71.2 °F 64% 29.96 in 10.0 mi South 8.1 mph - N/A   Clear